EHI
3 2 3 3 2 1 1 0 0 1 0 0 0 0 0 0 0 0 0 1 2 4 5 4 4 3 2 1 2 2 2 1 1 2 3 3 3 1 0 1 2 3 4
4 4 5 7 8 7 5 2 1 1 0 0 0 0 0 0 0 0 0 0 1 3 4 5 4 3 3 2 3 3 2 0 0 2 3 2 1 1 0 2 4 6 7
9 10 13 16 16 14 10 5 2 1 0 0 0 0 0 0 0 0 0 0 0 1 2 3 3 3 2 2 2 2 1 0 0 1 2 2 1 1 1 2 5 8 10
17 20 23 23 21 16 10 5 2 1 0 0 0 0 0 0 0 0 0 0 0 0 0 1 1 1 1 1 1 1 1 0 0 0 1 1 1 1 1 1 2 5 7
19 22 24 23 19 14 8 3 1 1 0 0 0 0 0 0 0 0 0 0 0 0 0 0 0 0 0 0 0 0 0 0 0 0 0 1 1 1 1 0 0 1 2
15 17 18 16 13 10 6 2 0 0 0 0 0 0 0 0 0 0 0 0 0 0 0 0 0 0 0 0 0 0 0 0 0 0 0 1 2 1 0 0 0 0 0
10 10 9 7 6 4 3 1 0 0 0 0 0 0 0 0 0 0 0 0 0 0 0 0 0 0 0 0 0 0 0 0 0 0 0 1 1 1 0 0 0 0 0
4 3 2 2 1 1 1 0 0 0 0 0 0 0 0 0 0 0 0 0 0 0 0 0 0 0 0 0 0 0 0 0 0 0 0 0 0 0 0 0 0 0 0
0 0 0 0 0 0 0 0 0 0 0 0 0 0 0 0 0 0 0 0 0 0 0 0 0 0 0 0 0 0 0 0 0 0 0 0 0 0 0 0 0 0 0
0 0 0 0 0 0 0 0 0 0 0 0 0 0 0 0 0 0 0 0 0 0 0 0 0 0 0 0 0 0 0 0 0 0 0 0 0 0 0 0 0 0 0
0 0 0 0 0 0 0 0 0 0 0 0 0 0 0 0 0 0 0 0 0 0 0 0 0 0 0 0 0 0 0 0 0 0 0 0 0 0 0 0 0 0 0
0 0 0 0 0 0 0 0 0 0 0 0 0 0 0 0 0 0 0 0 0 0 0 0 0 0 0 0 0 0 0 0 0 0 0 0 0 0 0 0 0 0 0
0 0 0 0 0 0 0 0 0 0 0 0 0 0 0 0 0 0 0 0 0 0 0 0 0 0 0 0 0 0 0 0 0 0 0 0 0 0 0 0 0 0 0
0 0 0 0 0 0 0 0 0 0 0 0 0 0 0 0 0 0 0 0 0 0 0 0 0 0 0 0 0 0 0 0 0 0 0 0 0 0 0 0 0 0 0
0 0 0 0 0 0 0 0 0 0 0 0 0 0 0 0 0 0 0 0 0 0 0 0 0 0 0 0 0 0 0 0 0 0 0 0 0 0 0 0 0 0 0
0 0 0 0 0 0 0 0 0 0 0 0 0 0 0 0 0 0 0 0 0 0 0 0 0 0 0 0 0 0 0 0 0 0 0 0 0 0 0 0 0 0 0
0 0 0 0 0 0 0 0 0 0 0 0 0 0 0 0 0 0 0 0 0 0 0 0 0 0 0 0 0 0 0 0 0 0 0 0 0 0 0 0 0 0 0
0 0 0 0 0 0 0 0 0 0 0 0 0 0 0 0 0 0 0 0 0 0 0 0 0 0 0 0 0 0 0 0 0 0 0 0 0 0 0 0 0 0 0
0 0 0 0 0 0 0 0 0 0 0 0 0 0 0 0 0 0 0 0 0 0 0 0 0 0 0 0 0 0 0 0 0 0 0 0 0 0 0 0 0 0 0
0 0 0 0 0 0 0 0 0 0 0 0 0 0 0 0 0 0 0 0 0 0 0 0 0 0 0 0 0 0 0 0 0 0 0 0 0 0 0 0 0 0 0
0 0 0 0 0 0 0 0 0 0 0 0 0 0 0 0 0 0 0 0 0 0 0 0 0 0 0 0 0 0 0 0 0 0 0 0 0 0 0 0 0 0 0
0 0 0 0 0 0 0 0 0 0 0 0 0 0 0 0 0 0 0 0 0 0 0 0 0 0 0 0 0 0 0 0 0 0 0 0 0 0 0 0 0 0 0
0 0 0 0 0 0 0 0 0 0 0 0 0 0 0 0 0 0 0 0 0 0 0 0 0 0 0 0 0 0 0 0 0 0 0 0 0 0 0 0 0 0 0
0 0 0 0 0 0 0 0 0 0 0 0 0 0 0 0 0 0 0 0 0 0 0 0 0 0 0 0 0 0 0 0 0 0 0 0 0 0 0 0 0 0 0
0 0 0 0 0 0 0 0 0 0 0 0 0 0 0 0 0 0 0 0 0 0 0 0 0 0 0 0 0 0 0 0 0 0 0 0 0 0 0 0 0 0 0
0 0 0 0 0 0 0 0 0 0 0 0 0 0 0 0 0 0 0 0 0 0 0 0 0 0 0 0 0 0 0 0 0 0 0 0 0 0 0 0 0 0 0
Wind_Speed
5 4 3 3 4 3 4 4 4 3 4 5 3 2 1 1 2 2 5 9 6 5 2 1 2 3 5 6 7 7 8 8 8 8 9 9 9 9 9 9 9 8 9
4 4 4 3 3 2 2 2 2 3 3 1 1 0 2 1 2 3 1 6 9 7 6 4 3 3 4 6 7 7 8 9 9 9 10 10 10 10 10 10 10 10 9
3 4 3 2 2 1 1 1 0 1 0 1 0 1 1 3 2 2 3 3 2 8 8 7 7 6 4 4 5 6 7 7 8 9 10 10 11 11 12 12 11 11 10
3 3 2 1 1 1 1 1 1 1 1 1 2 2 2 2 2 2 3 2 3 1 6 9 8 8 7 6 5 4 4 5 5 6 7 9 9 10 11 12 12 12 11
1 1 1 1 2 2 2 2 2 1 1 2 2 2 3 3 3 2 2 3 2 2 1 6 7 9 9 8 7 6 5 5 5 5 6 6 7 7 8 10 11 12 12
1 1 1 2 3 3 3 3 3 2 1 1 3 2 3 3 3 1 2 1 1 1 1 2 1 4 6 6 7 7 7 6 6 6 6 6 6 6 7 8 10 11 12
2 2 3 4 3 3 4 4 3 2 1 1 2 3 3 3 3 2 2 2 1 1 2 2 3 4 1 4 3 5 7 7 8 8 8 8 8 9 9 9 10 11 12
4 4 5 5 5 5 5 4 2 1 1 1 3 3 4 4 4 4 3 4 4 4 4 4 4 5 6 6 3 1 5 7 9 10 11 11 11 11 11 12 12 12 13
4 4 5 6 6 5 4 4 4 3 2 1 1 3 3 4 2 5 6 5 5 5 6 5 7 6 7 7 7 5 3 8 10 12 13 14 14 14 14 15 15 15 16
4 5 5 5 5 5 5 4 3 2 2 2 2 1 2 3 5 4 6 7 7 7 8 7 8 8 8 8 7 9 8 8 11 14 15 16 17 17 17 18 18 19 19
6 7 7 7 6 5 6 5 4 3 1 1 1 1 2 3 5 6 7 5 6 7 7 7 7 8 9 9 9 9 4 8 12 15 17 18 18 19 19 20 21 21 22
6 9 9 7 7 6 6 5 4 4 3 1 1 2 3 4 5 6 8 8 8 7 7 7 8 9 8 9 11 7 7 11 15 17 18 18 19 20 21 22 22 23 23
6 8 8 7 6 6 6 4 4 4 2 1 2 3 4 5 5 7 8 9 10 9 9 8 8 8 8 8 9 6 11 14 17 18 18 19 20 20 21 22 23 24 24
8 8 8 7 7 6 5 3 3 2 1 1 2 3 5 5 6 7 8 10 11 11 10 10 7 8 8 9 7 5 13 15 17 17 18 19 20 21 22 23 23 23 24
8 9 8 7 6 5 4 3 3 2 1 2 3 4 6 6 6 7 8 9 11 12 11 10 9 9 8 10 10 12 14 14 16 17 19 20 22 22 23 23 23 23 24
8 8 7 7 6 5 4 2 2 2 2 2 3 5 7 7 7 7 8 8 9 11 12 9 10 11 10 11 14 15 15 17 19 20 22 22 22 22 23 24 24 24 24
8 7 7 6 5 5 3 2 2 2 4 4 5 6 7 8 8 8 8 8 9 9 11 11 10 11 12 13 13 13 14 14 13 15 17 18 19 21 22 23 24 24 24
7 6 6 5 4 4 3 3 3 4 5 6 7 7 8 7 8 9 8 9 9 9 11 13 11 11 13 13 13 14 13 12 13 14 14 17 20 22 22 23 23 23 22
6 5 5 4 4 3 3 3 4 5 6 7 7 8 9 9 10 9 9 10 9 9 10 11 12 11 11 11 13 13 14 11 13 12 14 17 20 21 21 21 21 20 18
6 5 4 4 3 3 4 5 6 6 7 8 8 8 9 9 10 10 9 10 10 10 11 11 11 11 10 12 11 10 11 10 11 12 14 14 15 16 19 19 20 21 19
4 3 3 3 3 2 6 8 9 8 8 9 9 9 9 9 10 10 10 11 12 10 10 10 11 11 11 10 10 9 10 10 11 11 11 11 10 10 12 15 20 22 20
4 3 3 3 3 6 8 8 10 11 10 10 10 9 9 9 7 10 13 14 15 15 14 12 11 11 13 12 10 10 10 10 8 7 9 11 11 11 11 10 10 11 14
4 4 4 4 4 7 6 7 10 12 11 9 10 9 8 8 9 9 11 15 16 16 17 14 14 13 13 12 12 12 11 11 11 10 10 11 10 10 9 9 8 9 12
4 4 4 5 4 5 5 8 13 12 9 9 9 9 9 10 8 10 14 15 15 13 11 11 11 12 12 12 11 12 12 11 11 9 8 9 9 9 10 9 8 10 11
4 3 4 4 5 4 5 7 13 11 8 10 10 9 9 10 8 11 14 14 14 12 10 10 13 15 16 16 13 9 8 7 8 8 6 5 7 9 10 8 3 7 9
3 4 4 4 5 5 3 5 11 9 8 9 9 9 5 6 11 13 13 13 13 13 13 13 11 10 9 8 8 8 7 6 6 5 4 4 6 6 6 6 5 3 5
Wind_Direction
215 209 215 221 229 210 195 223 225 191 215 203 212 229 264 19 325 327 109 88 73 64 47 340 288 272 256 246 240 238 237 236 232 226 220 218 218 220 223 223 220 218 218
221 219 211 207 225 230 244 238 213 205 230 231 216 330 301 324 58 313 353 113 91 71 55 38 10 318 287 273 261 250 244 242 239 232 225 221 219 219 221 222 221 219 216
228 236 234 204 202 171 152 245 143 234 213 204 173 359 336 333 355 340 314 307 137 97 72 55 44 28 2 322 292 273 262 257 252 244 237 231 227 223 221 220 220 219 216
256 247 235 193 133 143 140 104 65 49 27 318 346 339 328 305 322 317 299 295 319 341 94 66 54 44 32 16 358 338 315 294 280 266 255 248 242 236 230 225 222 220 218
301 250 213 142 137 119 100 100 79 49 18 350 327 322 316 315 317 321 334 331 8 319 5 100 81 58 42 29 14 359 348 338 331 307 279 266 263 259 249 239 231 225 222
18 110 137 128 121 107 98 89 87 57 27 328 299 307 306 306 290 287 269 258 274 289 337 353 231 105 77 44 26 13 356 343 333 324 310 296 294 287 274 260 248 240 235
167 161 149 139 136 126 118 119 114 128 193 253 252 247 240 243 259 250 253 250 196 257 277 287 297 311 238 145 89 13 354 343 331 318 309 305 306 301 289 276 265 255 246
164 166 168 157 143 133 136 141 149 186 190 222 263 266 252 222 220 224 231 231 245 248 256 262 293 282 293 290 117 332 316 321 315 307 302 299 297 297 292 285 276 267 256
157 161 170 154 145 147 150 149 161 184 180 178 283 270 271 278 234 198 226 237 243 264 270 273 265 275 276 282 282 235 284 302 299 296 293 291 290 289 288 283 279 274 266
136 133 128 122 123 121 129 135 128 144 169 178 169 282 311 323 293 271 211 218 232 251 267 278 281 273 267 265 266 276 261 273 288 290 288 287 286 285 283 280 278 273 270
97 98 98 99 98 97 100 100 102 102 123 171 195 210 232 242 254 274 284 272 252 253 259 265 274 279 280 273 272 271 260 275 282 283 283 282 282 281 279 277 275 273 270
88 88 90 91 93 95 96 97 99 95 81 69 319 284 273 278 279 283 283 281 280 278 280 284 282 277 276 277 276 293 290 280 280 280 280 280 279 279 278 276 275 273 271
95 92 93 95 94 95 99 104 104 99 104 134 267 285 292 293 300 297 291 290 290 287 280 268 270 282 286 287 288 301 279 277 277 276 277 277 277 277 276 275 274 274 274
96 97 96 97 99 102 106 111 120 119 131 250 297 313 299 290 293 288 290 296 293 289 285 286 293 288 293 295 302 308 283 274 269 269 270 272 274 274 274 274 274 274 274
105 104 103 102 101 100 98 101 81 68 12 310 301 287 287 292 284 290 291 288 291 294 294 302 295 298 298 291 300 294 290 286 282 276 271 270 270 271 271 271 271 271 271
101 105 102 101 100 99 98 94 108 56 318 304 303 305 301 297 307 290 285 286 284 287 291 295 295 295 303 296 293 291 287 286 275 265 262 262 264 266 267 268 267 267 267
106 107 108 108 105 99 86 56 12 336 317 318 310 306 303 307 300 303 294 288 287 289 290 294 298 301 299 291 290 288 287 287 283 270 266 264 263 264 265 266 266 265 265
91 92 96 95 88 74 50 20 355 342 327 320 317 312 305 303 298 289 294 295 295 295 290 292 293 293 292 291 288 288 286 284 286 284 273 268 267 265 263 263 263 263 262
85 84 86 83 73 59 38 10 344 330 325 319 314 309 307 303 296 298 301 295 293 292 289 289 292 294 291 290 292 287 287 287 288 286 274 261 261 259 258 257 257 256 256
77 74 70 65 50 29 14 354 335 326 321 315 310 303 299 299 301 304 296 292 294 296 293 291 290 292 294 295 294 295 295 295 294 293 288 280 270 257 254 254 253 253 250
73 68 60 55 31 23 26 357 333 322 319 311 306 303 301 305 300 296 301 307 307 301 297 294 294 297 297 300 298 299 295 294 289 288 288 288 284 274 264 250 246 247 246
58 51 40 27 16 41 43 4 332 321 313 308 310 310 306 289 287 281 279 288 294 293 296 295 294 294 297 300 304 300 299 296 293 290 292 291 288 282 278 272 264 244 236
49 37 27 17 31 69 35 355 337 312 306 311 311 310 309 313 305 309 312 300 287 276 270 280 287 292 299 303 304 301 296 293 289 290 289 287 288 285 285 281 263 245 243
35 26 17 6 358 65 40 350 330 302 305 312 310 307 306 310 332 336 315 301 298 297 297 291 293 297 297 298 297 293 292 290 288 288 291 290 296 300 297 287 256 238 244
25 11 13 357 351 47 50 350 330 314 315 316 313 310 309 314 353 331 308 302 304 305 300 288 283 281 280 279 279 287 291 293 298 301 306 296 303 309 302 297 270 224 240
15 358 10 356 347 357 50 347 330 317 323 318 313 309 308 335 328 316 310 308 309 317 318 312 303 299 295 291 274 279 293 295 299 298 322 313 300 310 304 306 314 282 243